Location: Shepherdstown, WV
(39.4326°N, 77.8042°W)
Time: 06:31:45
(UTC-04:00)

SR - Pass Details

Date: 03 August 2021
Orbit: 581 x 874 km, 66.7° (Epoch: 24 September)

Event Time Altitude Azimuth Distance (km) Brightness Sun altitude
Rises 08:07:35 0° 254° (WSW) 3,430 ? 20.5°
Reaches altitude 10° 08:10:57 10° 273° (W) 2,465 ? 21.1°
Maximum altitude 08:14:44 18° 314° (NW) 1,925 ? 21.8°
Drops below altitude 10° 08:18:24 10° 357° (N) 2,368 ? 22.5°
Sets 08:21:33 0° 16° (NNE) 3,242 ? 23.1°
